,,,PA_Meas_PMT16A,,PR_Meas_QMR101_102,,RH_Meas_QMH101,,SR_Meas_QMS101,,TA_Meas_QMH101,,GenWind,,GenWind,
date,time,status,PA,status,PR,status,RH,status,SR,status,TA,status,DirAvg,status,SpdAvg,
2009-12-21, 00:00:05,VALID,1013.19,VALID,0,VALID,51.4738,VALID,0.105969,VALID,24.1227,VALID,123,VALID,0,
2009-12-21, 00:01:05,VALID,1013.2,VALID,0,VALID,51.4738,VALID,0,VALID,24.1422,VALID,123,VALID,0,
2009-12-21, 00:02:05,VALID,1013.21,VALID,0,VALID,51.4586,VALID,0,VALID,24.1209,VALID,123,VALID,0,
2009-12-21, 00:03:05,VALID,1013.21,VALID,0,VALID,51.4281,VALID,0,VALID,24.1422,VALID,123,VALID,0.125391,
2009-12-21, 00:04:05,VALID,1013.19,VALID,0,VALID,51.451,VALID,0,VALID,24.1422,VALID,123,VALID,0.0722656,
2009-12-21, 00:05:05,VALID,1013.2,VALID,0,VALID,51.4586,VALID,0,VALID,24.1422,VALID,123,VALID,0,
2009-12-21, 00:06:05,VALID,1013.19,VALID,0,VALID,51.4662,VALID,0,VALID,24.1422,VALID,123,VALID,0,
2009-12-21, 00:07:05,VALID,1013.19,VALID,0,VALID,51.4815,VALID,0,VALID,24.1422,VALID,123,VALID,0,
2009-12-21, 00:08:05,VALID,1013.21,VALID,0,VALID,51.4815,VALID,0,VALID,24.1422,VALID,123,VALID,0,
2009-12-21, 00:09:05,VALID,1013.2,VALID,0,VALID,51.4891,VALID,0,VALID,24.1422,VALID,123,VALID,0,
2009-12-21, 00:10:05,VALID,1013.2,VALID,0,VALID,51.5196,VALID,0,VALID,24.1227,VALID,123,VALID,0,
2009-12-21, 00:11:05,VALID,1013.18,VALID,0,VALID,51.5196,VALID,0,VALID,24.1227,VALID,125,VALID,0,
2009-12-21, 00:12:05,VALID,1013.18,VALID,0,VALID,51.5577,VALID,0,VALID,24.1032,VALID,125,VALID,0,
2009-12-21, 00:13:05,VALID,1013.18,VALID,0,VALID,51.5577,VALID,0,VALID,24.0643,VALID,125,VALID,0,
2009-12-21, 00:14:05,VALID,1013.17,VALID,0,VALID,51.5958,VALID,0,VALID,24.0643,VALID,125,VALID,0,
2009-12-21, 00:15:05,VALID,1013.16,VALID,0,VALID,51.6111,VALID,0,VALID,24.0235,VALID,127,VALID,0,
2009-12-21, 00:16:05,VALID,1013.17,VALID,0,VALID,51.6111,VALID,0,VALID,24.0253,VALID,127,VALID,0,
2009-12-21, 00:17:05,VALID,1013.13,VALID,0,VALID,51.6111,VALID,0,VALID,24.0253,VALID,127,VALID,0,
2009-12-21, 00:18:05,VALID,1013.15,VALID,0,VALID,51.6187,VALID,0,VALID,24.0058,VALID,127,VALID,0,
2009-12-21, 00:19:05,VALID,1013.13,VALID,0,VALID,51.6416,VALID,0,VALID,24.004,VALID,127,VALID,0,
2009-12-21, 00:20:05,VALID,1013.11,VALID,0,VALID,51.5958,VALID,0,VALID,24.004,VALID,127,VALID,0,
2009-12-21, 00:21:05,VALID,1013.11,VALID,0,VALID,51.6416,VALID,0,VALID,24.0058,VALID,127,VALID,0,
2009-12-21, 00:22:05,VALID,1013.11,VALID,0,VALID,51.6569,VALID,0,VALID,23.9845,VALID,127,VALID,0,
2009-12-21, 00:23:05,VALID,1013.1,VALID,0,VALID,51.6569,VALID,0,VALID,23.9863,VALID,127,VALID,0,
2009-12-21, 00:24:05,VALID,1013.09,VALID,0,VALID,51.6492,VALID,0,VALID,23.9863,VALID,127,VALID,0,
2009-12-21, 00:25:05,VALID,1013.1,VALID,0,VALID,51.6416,VALID,0,VALID,23.9863,VALID,127,VALID,0,
2009-12-21, 00:26:05,VALID,1013.11,VALID,0,VALID,51.6492,VALID,0,VALID,23.9845,VALID,127,VALID,0,
2009-12-21, 00:27:05,VALID,1013.09,VALID,0,VALID,51.6264,VALID,0.105969,VALID,23.9845,VALID,127,VALID,0,
2009-12-21, 00:28:05,VALID,1013.07,VALID,0,VALID,51.6416,VALID,0,VALID,23.9863,VALID,127,VALID,0,
2009-12-21, 00:29:05,VALID,1013.07,VALID,0,VALID,51.6187,VALID,0,VALID,23.9845,VALID,127,VALID,0,
2009-12-21, 00:30:05,VALID,1013.08,VALID,0,VALID,51.6416,VALID,0,VALID,23.965,VALID,127,VALID,0,
2009-12-21, 00:31:05,VALID,1013.07,VALID,0,VALID,51.6721,VALID,0.105969,VALID,24.0076,VALID,127,VALID,0,
2009-12-21, 00:32:05,VALID,1013.07,VALID,0,VALID,51.6874,VALID,0,VALID,23.9863,VALID,127,VALID,0,
2009-12-21, 00:33:05,VALID,1013.08,VALID,0,VALID,51.6797,VALID,0,VALID,23.9455,VALID,127,VALID,0,
2009-12-21, 00:34:05,VALID,1013.08,VALID,0,VALID,51.6797,VALID,0,VALID,23.9668,VALID,127,VALID,0,
2009-12-21, 00:35:05,VALID,1013.08,VALID,0,VALID,51.6797,VALID,0,VALID,23.9668,VALID,127,VALID,0,
2009-12-21, 00:36:05,VALID,1013.07,VALID,0,VALID,51.7102,VALID,0,VALID,23.9668,VALID,127,VALID,0,
2009-12-21, 00:37:05,VALID,1013.06,VALID,0,VALID,51.7179,VALID,0,VALID,23.926,VALID,127,VALID,0,
2009-12-21, 00:38:05,VALID,1013.04,VALID,0,VALID,51.6874,VALID,0,VALID,23.926,VALID,127,VALID,0,
2009-12-21, 00:39:05,VALID,1013.06,VALID,0,VALID,51.7484,VALID,0,VALID,23.9473,VALID,127,VALID,0,
2009-12-21, 00:40:05,VALID,1013.04,VALID,0,VALID,51.7407,VALID,0,VALID,23.9278,VALID,127,VALID,0,
2009-12-21, 00:41:05,VALID,1013.04,VALID,0,VALID,51.7636,VALID,0,VALID,23.9065,VALID,127,VALID,0,
2009-12-21, 00:42:05,VALID,1013.01,VALID,0,VALID,51.756,VALID,0,VALID,23.9473,VALID,127,VALID,0,
2009-12-21, 00:43:05,VALID,1012.99,VALID,0,VALID,51.7407,VALID,0,VALID,23.9065,VALID,127,VALID,0,
2009-12-21, 00:44:05,VALID,1013,VALID,0,VALID,51.756,VALID,0.105969,VALID,23.9065,VALID,127,VALID,0,
2009-12-21, 00:45:05,VALID,1012.98,VALID,0,VALID,51.7789,VALID,0.105969,VALID,23.8871,VALID,127,VALID,0,
2009-12-21, 00:46:05,VALID,1012.96,VALID,0,VALID,51.7865,VALID,0,VALID,23.9084,VALID,127,VALID,0,
2009-12-21, 00:47:05,VALID,1012.95,VALID,0,VALID,51.8017,VALID,0,VALID,23.8871,VALID,127,VALID,0,
2009-12-21, 00:48:05,VALID,1012.93,VALID,0,VALID,51.7941,VALID,0.105969,VALID,23.8889,VALID,126,VALID,0,
2009-12-21, 00:49:05,VALID,1012.96,VALID,0,VALID,51.7789,VALID,0,VALID,23.8889,VALID,121,VALID,0,
2009-12-21, 00:50:05,VALID,1012.93,VALID,0,VALID,51.7941,VALID,0.105969,VALID,23.8889,VALID,130,VALID,0,
2009-12-21, 00:51:05,VALID,1012.89,VALID,0,VALID,51.7865,VALID,0,VALID,23.8889,VALID,127,VALID,0,
2009-12-21, 00:52:05,VALID,1012.9,VALID,0,VALID,51.8246,VALID,0,VALID,23.8871,VALID,95,VALID,0,
2009-12-21, 00:53:05,VALID,1012.9,VALID,0,VALID,51.817,VALID,0.105969,VALID,23.8871,VALID,114,VALID,0,
2009-12-21, 00:54:05,VALID,1012.9,VALID,0,VALID,51.8399,VALID,0,VALID,23.8676,VALID,120,VALID,0,
2009-12-21, 00:55:05,VALID,1012.88,VALID,0,VALID,51.8322,VALID,0.105969,VALID,23.8889,VALID,114,VALID,0,
2009-12-21, 00:56:05,VALID,1012.9,VALID,0,VALID,51.8704,VALID,0,VALID,23.8481,VALID,115,VALID,0,
2009-12-21, 00:57:05,VALID,1012.9,VALID,0,VALID,51.8856,VALID,0,VALID,23.8694,VALID,140,VALID,0,
2009-12-21, 00:58:05,VALID,1012.88,VALID,0,VALID,51.9085,VALID,0.105969,VALID,23.8481,VALID,132,VALID,0,
2009-12-21, 00:59:05,VALID,1012.89,VALID,0,VALID,51.9161,VALID,0,VALID,23.8304,VALID,127,VALID,0.853125,
2009-12-21, 01:00:05,VALID,1012.88,VALID,0,VALID,51.9466,VALID,0,VALID,23.8091,VALID,127,VALID,0.954297,
2009-12-21, 01:01:05,VALID,1012.86,VALID,0,VALID,51.9695,VALID,0,VALID,23.8091,VALID,131,VALID,0.686328,
2009-12-21, 01:02:05,VALID,1012.85,VALID,0,VALID,51.9848,VALID,0,VALID,23.8304,VALID,109,VALID,0.821094,
2009-12-21, 01:03:05,VALID,1012.8,VALID,0,VALID,52.0076,VALID,0,VALID,23.8109,VALID,133,VALID,0.819531,
2009-12-21, 01:04:05,VALID,1012.78,VALID,0,VALID,52.0229,VALID,0,VALID,23.7701,VALID,126,VALID,1.03516,
2009-12-21, 01:05:05,VALID,1012.78,VALID,0,VALID,52.0076,VALID,0,VALID,23.7701,VALID,128,VALID,1.62227,
2009-12-21, 01:06:05,VALID,1012.76,VALID,0,VALID,52.0229,VALID,0,VALID,23.7914,VALID,125,VALID,0.954687,
2009-12-21, 01:07:05,VALID,1012.75,VALID,0,VALID,52.0305,VALID,0,VALID,23.7701,VALID,129,VALID,1.17305,
2009-12-21, 01:08:05,VALID,1012.73,VALID,0,VALID,52.0458,VALID,0.105969,VALID,23.7914,VALID,126,VALID,0.833984,
2009-12-21, 01:09:05,VALID,1012.76,VALID,0,VALID,52.0381,VALID,0,VALID,23.7507,VALID,127,VALID,1.15039,
2009-12-21, 01:10:05,VALID,1012.72,VALID,0,VALID,52.061,VALID,0,VALID,23.772,VALID,104,VALID,1.05664,
2009-12-21, 01:11:05,VALID,1012.71,VALID,0,VALID,52.0534,VALID,0,VALID,23.7701,VALID,123,VALID,0.525391,
2009-12-21, 01:12:05,VALID,1012.73,VALID,0,VALID,52.0381,VALID,0,VALID,23.7507,VALID,122,VALID,0.219141,
2009-12-21, 01:13:05,VALID,1012.74,VALID,0,VALID,52.0305,VALID,0,VALID,23.7507,VALID,119,VALID,0.608594,
2009-12-21, 01:14:05,VALID,1012.72,VALID,0,VALID,52.0229,VALID,0,VALID,23.7312,VALID,104,VALID,1.16875,
2009-12-21, 01:15:05,VALID,1012.72,VALID,0,VALID,52.0229,VALID,0,VALID,23.7525,VALID,108,VALID,1.25469,
2009-12-21, 01:16:05,VALID,1012.72,VALID,0,VALID,52.0534,VALID,0,VALID,23.7312,VALID,116,VALID,0.646094,
2009-12-21, 01:17:05,VALID,1012.7,VALID,0,VALID,52.0381,VALID,0,VALID,23.7312,VALID,103,VALID,0.654688,
2009-12-21, 01:18:05,VALID,1012.71,VALID,0,VALID,52.0534,VALID,0.105969,VALID,23.7525,VALID,114,VALID,0.524609,
2009-12-21, 01:19:05,VALID,1012.7,VALID,0,VALID,52.0534,VALID,0.105969,VALID,23.733,VALID,110,VALID,0.425781,
2009-12-21, 01:20:05,VALID,1012.69,VALID,0,VALID,52.061,VALID,0,VALID,23.7135,VALID,144,VALID,0.872266,
2009-12-21, 01:21:05,VALID,1012.69,VALID,0,VALID,52.0915,VALID,0,VALID,23.7117,VALID,117,VALID,0.602734,
2009-12-21, 01:22:05,VALID,1012.69,VALID,0,VALID,52.0915,VALID,0.105969,VALID,23.7135,VALID,137,VALID,0.714063,
2009-12-21, 01:23:05,VALID,1012.67,VALID,0,VALID,52.1144,VALID,0,VALID,23.694,VALID,126,VALID,0.876172,
2009-12-21, 01:24:05,VALID,1012.68,VALID,0,VALID,52.1144,VALID,0,VALID,23.694,VALID,126,VALID,0.507813,
2009-12-21, 01:25:05,VALID,1012.67,VALID,0,VALID,52.122,VALID,0.105969,VALID,23.6727,VALID,125,VALID,0.626562,
2009-12-21, 01:26:05,VALID,1012.67,VALID,0,VALID,52.1449,VALID,0.105969,VALID,23.6745,VALID,136,VALID,1.175,
2009-12-21, 01:27:05,VALID,1012.65,VALID,0,VALID,52.1297,VALID,0,VALID,23.6338,VALID,120,VALID,0.524219,
2009-12-21, 01:28:05,VALID,1012.66,VALID,0,VALID,52.1602,VALID,0,VALID,23.655,VALID,137,VALID,0.485547,
2009-12-21, 01:29:05,VALID,1012.65,VALID,0,VALID,52.1754,VALID,0.105969,VALID,23.655,VALID,132,VALID,0.378125,
2009-12-21, 01:30:05,VALID,1012.64,VALID,0,VALID,52.1678,VALID,0,VALID,23.655,VALID,117,VALID,0.732422,
2009-12-21, 01:31:05,VALID,1012.63,VALID,0,VALID,52.183,VALID,0.105969,VALID,23.655,VALID,116,VALID,0.689453,
2009-12-21, 01:32:05,VALID,1012.63,VALID,0,VALID,52.183,VALID,0.105969,VALID,23.6338,VALID,116,VALID,0.454688,
2009-12-21, 01:33:05,VALID,1012.62,VALID,0,VALID,52.1754,VALID,0.105969,VALID,23.6143,VALID,150,VALID,0.204688,
2009-12-21, 01:34:05,VALID,1012.6,VALID,0,VALID,52.1754,VALID,0.105969,VALID,23.6356,VALID,110,VALID,0.603125,
2009-12-21, 01:35:05,VALID,1012.57,VALID,0,VALID,52.1907,VALID,0,VALID,23.6161,VALID,103,VALID,0.633984,
2009-12-21, 01:36:05,VALID,1012.56,VALID,0,VALID,52.183,VALID,0.105969,VALID,23.6356,VALID,104,VALID,0.409375,
2009-12-21, 01:37:05,VALID,1012.53,VALID,0,VALID,52.1907,VALID,0,VALID,23.6356,VALID,78,VALID,0.567187,
2009-12-21, 01:38:05,VALID,1012.52,VALID,0,VALID,52.2135,VALID,0.105969,VALID,23.5948,VALID,105,VALID,0.800781,
2009-12-21, 01:39:05,VALID,1012.5,VALID,0,VALID,52.2288,VALID,0,VALID,23.6161,VALID,121,VALID,0.514453,
2009-12-21, 01:40:05,VALID,1012.48,VALID,0,VALID,52.2593,VALID,0,VALID,23.5948,VALID,98,VALID,0.601172,
2009-12-21, 01:41:05,VALID,1012.47,VALID,0,VALID,52.2364,VALID,0.105969,VALID,23.6161,VALID,108,VALID,0.719922,
2009-12-21, 01:42:05,VALID,1012.46,VALID,0,VALID,52.2745,VALID,0.105969,VALID,23.5966,VALID,108,VALID,0.403906,
2009-12-21, 01:43:05,VALID,1012.42,VALID,0,VALID,52.2669,VALID,0,VALID,23.5966,VALID,108,VALID,0.03125,
2009-12-21, 01:44:05,VALID,1012.41,VALID,0,VALID,52.2669,VALID,0,VALID,23.5753,VALID,108,VALID,0.090625,
2009-12-21, 01:45:05,VALID,1012.39,VALID,0,VALID,52.2669,VALID,0,VALID,23.5966,VALID,108,VALID,0,
2009-12-21, 01:46:05,VALID,1012.38,VALID,0,VALID,52.2822,VALID,0.105969,VALID,23.5753,VALID,89,VALID,0.0886719,
2009-12-21, 01:47:05,VALID,1012.37,VALID,0,VALID,52.2898,VALID,0.105969,VALID,23.5771,VALID,84,VALID,0.585156,
2009-12-21, 01:48:05,VALID,1012.36,VALID,0,VALID,52.2822,VALID,0.105969,VALID,23.5771,VALID,86,VALID,0.985547,
2009-12-21, 01:49:05,VALID,1012.37,VALID,0,VALID,52.2669,VALID,0.105969,VALID,23.5558,VALID,101,VALID,1.30234,
2009-12-21, 01:50:05,VALID,1012.36,VALID,0,VALID,52.3127,VALID,0.105969,VALID,23.5558,VALID,106,VALID,0.464844,
2009-12-21, 01:51:05,VALID,1012.36,VALID,0,VALID,52.3203,VALID,0.105969,VALID,23.5169,VALID,111,VALID,0.941016,
2009-12-21, 01:52:05,VALID,1012.39,VALID,0,VALID,52.305,VALID,0.105969,VALID,23.5576,VALID,76,VALID,0.652734,
2009-12-21, 01:53:05,VALID,1012.37,VALID,0,VALID,52.3127,VALID,0.105969,VALID,23.5363,VALID,90,VALID,0.369531,
2009-12-21, 01:54:05,VALID,1012.38,VALID,0,VALID,52.2974,VALID,0,VALID,23.5381,VALID,105,VALID,0.536719,
2009-12-21, 01:55:05,VALID,1012.4,VALID,0,VALID,52.305,VALID,0.105969,VALID,23.5169,VALID,72,VALID,0.385938,
2009-12-21, 01:56:05,VALID,1012.41,VALID,0,VALID,52.3127,VALID,0,VALID,23.5186,VALID,75,VALID,0.258203,
2009-12-21, 01:57:05,VALID,1012.39,VALID,0,VALID,52.3279,VALID,0,VALID,23.5381,VALID,75,VALID,0.261328,
2009-12-21, 01:58:05,VALID,1012.35,VALID,0,VALID,52.3432,VALID,0.105969,VALID,23.5186,VALID,75,VALID,0,
2009-12-21, 01:59:05,VALID,1012.34,VALID,0,VALID,52.3584,VALID,0,VALID,23.4779,VALID,75,VALID,0,
2009-12-21, 02:00:04,VALID,1012.37,VALID,0,VALID,52.3508,VALID,0.105969,VALID,23.4797,VALID,77,VALID,0.237891,
2009-12-21, 02:01:04,VALID,1012.34,VALID,0,VALID,52.3661,VALID,0,VALID,23.4797,VALID,106,VALID,0.287109,
2009-12-21, 02:02:04,VALID,1012.31,VALID,0,VALID,52.3661,VALID,0.105969,VALID,23.4602,VALID,106,VALID,0.377344,
2009-12-21, 02:03:04,VALID,1012.29,VALID,0,VALID,52.3813,VALID,0.105969,VALID,23.4389,VALID,123,VALID,0.410156,
2009-12-21, 02:04:04,VALID,1012.3,VALID,0,VALID,52.3966,VALID,0,VALID,23.4194,VALID,115,VALID,0.309766,
2009-12-21, 02:05:04,VALID,1012.28,VALID,0,VALID,52.3889,VALID,0,VALID,23.4212,VALID,96,VALID,0.664844,
2009-12-21, 02:06:04,VALID,1012.23,VALID,0,VALID,52.3966,VALID,0.105969,VALID,23.4407,VALID,106,VALID,1.05898,
2009-12-21, 02:07:04,VALID,1012.23,VALID,0,VALID,52.3889,VALID,0.105969,VALID,23.4212,VALID,95,VALID,0.841016,
2009-12-21, 02:08:04,VALID,1012.2,VALID,0,VALID,52.4042,VALID,0,VALID,23.4194,VALID,81,VALID,1.2125,
2009-12-21, 02:09:04,VALID,1012.21,VALID,0,VALID,52.3966,VALID,0.105969,VALID,23.4,VALID,97,VALID,1.1207,
2009-12-21, 02:10:04,VALID,1012.17,VALID,0,VALID,52.3661,VALID,0.105969,VALID,23.4212,VALID,76,VALID,0.844141,
2009-12-21, 02:11:04,VALID,1012.19,VALID,0,VALID,52.4118,VALID,0,VALID,23.3805,VALID,68,VALID,0.85,
2009-12-21, 02:12:04,VALID,1012.15,VALID,0,VALID,52.4042,VALID,0.105969,VALID,23.4017,VALID,93,VALID,0.772656,
2009-12-21, 02:13:04,VALID,1012.17,VALID,0,VALID,52.4118,VALID,0,VALID,23.4017,VALID,80,VALID,0.75,
2009-12-21, 02:14:04,VALID,1012.18,VALID,0,VALID,52.4271,VALID,0.105969,VALID,23.3823,VALID,109,VALID,0.625781,
2009-12-21, 02:15:04,VALID,1012.19,VALID,0,VALID,52.4271,VALID,0.105969,VALID,23.3823,VALID,99,VALID,0.583984,
2009-12-21, 02:16:04,VALID,1012.16,VALID,0,VALID,52.4499,VALID,0.105969,VALID,23.361,VALID,84,VALID,0.527734,
2009-12-21, 02:17:04,VALID,1012.19,VALID,0,VALID,52.4423,VALID,0.105969,VALID,23.3415,VALID,97,VALID,0.834766,
2009-12-21, 02:18:04,VALID,1012.18,VALID,0,VALID,52.4347,VALID,0,VALID,23.3628,VALID,91,VALID,0.855859,
2009-12-21, 02:19:04,VALID,1012.2,VALID,0,VALID,52.4271,VALID,0.105969,VALID,23.3415,VALID,106,VALID,0.607813,
2009-12-21, 02:20:04,VALID,1012.21,VALID,0,VALID,52.4728,VALID,0.105969,VALID,23.3415,VALID,150,VALID,0.651953,
2009-12-21, 02:21:04,VALID,1012.22,VALID,0,VALID,52.4652,VALID,0.105969,VALID,23.3415,VALID,114,VALID,0.650781,
2009-12-21, 02:22:04,VALID,1012.22,VALID,0,VALID,52.4576,VALID,0.105969,VALID,23.322,VALID,96,VALID,0.412891,
2009-12-21, 02:23:04,VALID,1012.23,VALID,0,VALID,52.4728,VALID,0.105969,VALID,23.3433,VALID,95,VALID,0,
2009-12-21, 02:24:04,VALID,1012.22,VALID,0,VALID,52.4728,VALID,0.105969,VALID,23.3026,VALID,105,VALID,0,
2009-12-21, 02:25:04,VALID,1012.19,VALID,0,VALID,52.4804,VALID,0,VALID,23.3238,VALID,110,VALID,0.425,
2009-12-21, 02:26:04,VALID,1012.21,VALID,0,VALID,52.4881,VALID,0,VALID,23.3238,VALID,120,VALID,0.369922,
2009-12-21, 02:27:04,VALID,1012.24,VALID,0,VALID,52.4576,VALID,0,VALID,23.3043,VALID,162,VALID,0.198047,
2009-12-21, 02:28:04,VALID,1012.24,VALID,0,VALID,52.4652,VALID,0.105969,VALID,23.3043,VALID,153,VALID,0.455859,
2009-12-21, 02:29:04,VALID,1012.25,VALID,0,VALID,52.4652,VALID,0,VALID,23.2848,VALID,170,VALID,0.412109,
2009-12-21, 02:30:04,VALID,1012.27,VALID,0,VALID,52.4957,VALID,0.105969,VALID,23.2654,VALID,170,VALID,0.555469,
2009-12-21, 02:31:04,VALID,1012.31,VALID,0,VALID,52.5186,VALID,0.105969,VALID,23.2246,VALID,170,VALID,0.595703,
2009-12-21, 02:32:04,VALID,1012.32,VALID,0,VALID,52.5186,VALID,0,VALID,23.2264,VALID,170,VALID,0.521094,
2009-12-21, 02:33:04,VALID,1012.3,VALID,0,VALID,52.5338,VALID,0.105969,VALID,23.1857,VALID,170,VALID,0.345313,
2009-12-21, 02:34:04,VALID,1012.33,VALID,0,VALID,52.5643,VALID,0,VALID,23.2069,VALID,170,VALID,0.265625,
2009-12-21, 02:35:04,VALID,1012.31,VALID,0,VALID,52.5872,VALID,0,VALID,23.2069,VALID,170,VALID,0.333203,
2009-12-21, 02:36:04,VALID,1012.29,VALID,0,VALID,52.6558,VALID,0.105969,VALID,23.1662,VALID,170,VALID,0.520703,
2009-12-21, 02:37:04,VALID,1012.31,VALID,0,VALID,52.6482,VALID,0,VALID,23.1874,VALID,170,VALID,0.574609,
2009-12-21, 02:38:04,VALID,1012.31,VALID,0,VALID,52.6635,VALID,0,VALID,23.1662,VALID,170,VALID,0.250391,
2009-12-21, 02:39:04,VALID,1012.29,VALID,0,VALID,52.6635,VALID,0,VALID,23.1679,VALID,170,VALID,0.295703,
2009-12-21, 02:40:04,VALID,1012.28,VALID,0,VALID,52.7168,VALID,0,VALID,23.1485,VALID,170,VALID,0.266406,
2009-12-21, 02:41:04,VALID,1012.29,VALID,0,VALID,52.7168,VALID,0.105969,VALID,23.1485,VALID,179,VALID,0.609766,
2009-12-21, 02:42:04,VALID,1012.28,VALID,0,VALID,52.7168,VALID,0.105969,VALID,23.1077,VALID,160,VALID,0.550391,
2009-12-21, 02:43:04,VALID,1012.27,VALID,0,VALID,52.7168,VALID,0.105969,VALID,23.129,VALID,167,VALID,0.436719,
2009-12-21, 02:44:04,VALID,1012.26,VALID,0,VALID,52.7321,VALID,0,VALID,23.1095,VALID,177,VALID,0.617969,
2009-12-21, 02:45:04,VALID,1012.25,VALID,0,VALID,52.7626,VALID,0.105969,VALID,23.0883,VALID,172,VALID,0.48125,
2009-12-21, 02:46:04,VALID,1012.23,VALID,0,VALID,52.7702,VALID,0,VALID,23.0688,VALID,172,VALID,0.412891,
2009-12-21, 02:47:04,VALID,1012.23,VALID,0,VALID,52.7855,VALID,0,VALID,23.09,VALID,174,VALID,0.66875,
2009-12-21, 02:48:04,VALID,1012.2,VALID,0,VALID,52.8083,VALID,0,VALID,23.0705,VALID,177,VALID,0.525,
2009-12-21, 02:49:04,VALID,1012.21,VALID,0,VALID,52.8236,VALID,0,VALID,23.0705,VALID,173,VALID,0.499219,
2009-12-21, 02:50:04,VALID,1012.17,VALID,0,VALID,52.8388,VALID,0.105969,VALID,23.0298,VALID,173,VALID,0.54375,
2009-12-21, 02:51:04,VALID,1012.19,VALID,0,VALID,52.8312,VALID,0,VALID,23.0705,VALID,162,VALID,0.578906,
2009-12-21, 02:52:04,VALID,1012.17,VALID,0,VALID,52.8388,VALID,0.105969,VALID,23.0493,VALID,163,VALID,0.501172,
2009-12-21, 02:53:04,VALID,1012.2,VALID,0,VALID,52.8541,VALID,0.105969,VALID,23.0493,VALID,163,VALID,0.0386719,
2009-12-21, 02:54:04,VALID,1012.2,VALID,0,VALID,52.8541,VALID,0,VALID,23.0511,VALID,163,VALID,0.221875,
2009-12-21, 02:55:04,VALID,1012.2,VALID,0,VALID,52.8465,VALID,0,VALID,23.0316,VALID,162,VALID,0.383203,
2009-12-21, 02:56:04,VALID,1012.21,VALID,0,VALID,52.8541,VALID,0.105969,VALID,23.0298,VALID,138,VALID,0.523047,
2009-12-21, 02:57:04,VALID,1012.2,VALID,0,VALID,52.8846,VALID,0,VALID,23.0316,VALID,138,VALID,0.383203,
2009-12-21, 02:58:04,VALID,1012.2,VALID,0,VALID,52.9227,VALID,0.105969,VALID,23.0316,VALID,138,VALID,0.375781,
2009-12-21, 02:59:04,VALID,1012.21,VALID,0,VALID,52.8846,VALID,0,VALID,23.0103,VALID,139,VALID,0.383203,
2009-12-21, 03:00:04,VALID,1012.19,VALID,0,VALID,52.8999,VALID,0,VALID,23.0103,VALID,139,VALID,0.423438,
2009-12-21, 03:01:04,VALID,1012.21,VALID,0,VALID,52.9304,VALID,0.105969,VALID,23.0103,VALID,139,VALID,0.0539063,
2009-12-21, 03:02:04,VALID,1012.2,VALID,0,VALID,52.9532,VALID,0.105969,VALID,23.0121,VALID,139,VALID,0,
2009-12-21, 03:03:04,VALID,1012.19,VALID,0,VALID,52.9609,VALID,0.105969,VALID,22.9909,VALID,139,VALID,0,
2009-12-21, 03:04:04,VALID,1012.2,VALID,0,VALID,52.9456,VALID,0,VALID,23.0121,VALID,139,VALID,0,
2009-12-21, 03:05:04,VALID,1012.2,VALID,0,VALID,52.9304,VALID,0,VALID,23.0121,VALID,140,VALID,0.482031,
2009-12-21, 03:06:04,VALID,1012.17,VALID,0,VALID,52.9304,VALID,0,VALID,22.9926,VALID,140,VALID,0.0539063,
2009-12-21, 03:07:04,VALID,1012.15,VALID,0,VALID,52.9532,VALID,0,VALID,23.0138,VALID,140,VALID,0.252344,
2009-12-21, 03:08:04,VALID,1012.12,VALID,0,VALID,52.9761,VALID,0,VALID,22.9926,VALID,140,VALID,0.0785156,
2009-12-21, 03:09:04,VALID,1012.13,VALID,0,VALID,52.9761,VALID,0,VALID,23.0138,VALID,127,VALID,0.132031,
2009-12-21, 03:10:04,VALID,1012.11,VALID,0,VALID,52.9609,VALID,0,VALID,23.0138,VALID,104,VALID,0.557031,
2009-12-21, 03:11:04,VALID,1012.1,VALID,0,VALID,52.9609,VALID,0,VALID,23.0121,VALID,106,VALID,0.679297,
2009-12-21, 03:12:04,VALID,1012.08,VALID,0,VALID,52.9609,VALID,0,VALID,23.0121,VALID,104,VALID,0.796484,
2009-12-21, 03:13:04,VALID,1012.07,VALID,0,VALID,52.9685,VALID,0,VALID,23.0316,VALID,103,VALID,0.803906,
2009-12-21, 03:14:04,VALID,1012.04,VALID,0,VALID,52.9761,VALID,0,VALID,23.0316,VALID,105,VALID,0.179688,
2009-12-21, 03:15:04,VALID,1012.01,VALID,0,VALID,52.9685,VALID,0,VALID,23.0528,VALID,105,VALID,0.426562,
2009-12-21, 03:16:04,VALID,1012.01,VALID,0,VALID,52.9685,VALID,0,VALID,23.0316,VALID,98,VALID,0.664844,
2009-12-21, 03:17:04,VALID,1011.97,VALID,0,VALID,52.9609,VALID,0,VALID,23.0333,VALID,111,VALID,0.624219,
2009-12-21, 03:18:04,VALID,1011.94,VALID,0,VALID,52.9685,VALID,0,VALID,23.0528,VALID,102,VALID,0.527344,
2009-12-21, 03:19:04,VALID,1011.9,VALID,0,VALID,52.9685,VALID,0,VALID,23.0316,VALID,101,VALID,0.705078,
2009-12-21, 03:20:04,VALID,1011.88,VALID,0,VALID,52.9609,VALID,0,VALID,23.0316,VALID,107,VALID,1.00273,
2009-12-21, 03:21:04,VALID,1011.87,VALID,0,VALID,52.9609,VALID,0,VALID,23.0511,VALID,100,VALID,0.720312,
2009-12-21, 03:22:04,VALID,1011.87,VALID,0,VALID,52.9609,VALID,0,VALID,23.0511,VALID,100,VALID,0.524219,
2009-12-21, 03:23:04,VALID,1011.86,VALID,0,VALID,52.9914,VALID,0,VALID,23.0511,VALID,102,VALID,0.440234,
2009-12-21, 03:24:04,VALID,1011.84,VALID,0,VALID,52.9685,VALID,0,VALID,23.0316,VALID,102,VALID,0.403906,
2009-12-21, 03:25:04,VALID,1011.8,VALID,0,VALID,52.9304,VALID,0,VALID,23.0528,VALID,102,VALID,0.255078,
2009-12-21, 03:26:04,VALID,1011.79,VALID,0,VALID,52.9456,VALID,0,VALID,23.0511,VALID,123,VALID,0.648047,
2009-12-21, 03:27:04,VALID,1011.8,VALID,0,VALID,52.9609,VALID,0,VALID,23.0511,VALID,112,VALID,0.366406,
2009-12-21, 03:28:04,VALID,1011.78,VALID,0,VALID,52.9761,VALID,0,VALID,23.0316,VALID,112,VALID,0.00664063,
2009-12-21, 03:29:04,VALID,1011.75,VALID,0,VALID,52.9914,VALID,0,VALID,23.0528,VALID,126,VALID,0,
2009-12-21, 03:30:04,VALID,1011.73,VALID,0,VALID,53.0066,VALID,0,VALID,23.0723,VALID,125,VALID,0,
2009-12-21, 03:31:04,VALID,1011.73,VALID,0,VALID,52.9837,VALID,0,VALID,23.0511,VALID,104,VALID,0.475,
2009-12-21, 03:32:04,VALID,1011.72,VALID,0,VALID,53.0066,VALID,0,VALID,23.0511,VALID,133,VALID,0.830078,
2009-12-21, 03:33:04,VALID,1011.72,VALID,0,VALID,52.9837,VALID,0,VALID,23.0511,VALID,109,VALID,0.370313,
2009-12-21, 03:34:04,VALID,1011.71,VALID,0,VALID,52.9761,VALID,0,VALID,23.0705,VALID,124,VALID,0.804297,
2009-12-21, 03:35:04,VALID,1011.73,VALID,0,VALID,52.9685,VALID,0,VALID,23.0918,VALID,104,VALID,0.552344,
2009-12-21, 03:36:04,VALID,1011.73,VALID,0,VALID,52.9914,VALID,0,VALID,23.0705,VALID,104,VALID,0.246484,
2009-12-21, 03:37:04,VALID,1011.74,VALID,0,VALID,52.999,VALID,0,VALID,23.0705,VALID,104,VALID,0.411719,
2009-12-21, 03:38:04,VALID,1011.78,VALID,0,VALID,52.9685,VALID,0,VALID,23.0705,VALID,104,VALID,0.364844,
2009-12-21, 03:39:04,VALID,1011.81,VALID,0,VALID,52.9609,VALID,0,VALID,23.0705,VALID,79,VALID,0.00976563,
2009-12-21, 03:40:04,VALID,1011.84,VALID,0,VALID,52.9456,VALID,0,VALID,23.0705,VALID,113,VALID,0.353125,
2009-12-21, 03:41:04,VALID,1011.84,VALID,0,VALID,52.9609,VALID,0,VALID,23.0705,VALID,75,VALID,0.90625,
2009-12-21, 03:42:04,VALID,1011.85,VALID,0,VALID,52.9609,VALID,0,VALID,23.0705,VALID,85,VALID,0.355078,
2009-12-21, 03:43:04,VALID,1011.85,VALID,0,VALID,52.9227,VALID,0,VALID,23.0705,VALID,90,VALID,0.396875,
2009-12-21, 03:44:04,VALID,1011.86,VALID,0,VALID,52.9685,VALID,0,VALID,23.0705,VALID,94,VALID,0.939844,